Flag for Brazil Weather past 2 weeks in Porto Alegre, Rio Grande do Sul, Brazil

Now
63 °F

Sunny.


Feels Like: 63 °F
Forecast: 57 / 67 °F
Wind: 5 mph from Southwest

Location: Porto Alegre Aero-Porto

Current Time: Jul 30, 2014 at 11:18:04 AM

Latest Report: Jul 30, 2014 at 11:00 AM


Visibility: 10 mi

Pressure: 30.27 "Hg

Humidity: 83%

Dew point: 57 °F

Location of Porto AlegreLocation

Historic Weather in Porto Alegre — Graph

°F

Porto Alegre temperature yesterday

Maximum temperature yesterday: 73 °F (at 2:00 PM)
Minimum temperature yesterday: 54 °F (at 1:00 AM)
Average temperature yesterday: 62 °F

Past Weeks' High & Low Weather Summary

 TemperatureHumidityPressure
High81 °F (Jul 22, 2:00 PM)100% (Jul 16, 4:00 AM)30.48 "Hg (Jul 16, 4:00 AM)
Low39 °F (Jul 18, 7:00 AM)32% (Jul 22, 2:00 PM)29.65 "Hg (Jul 23, 7:00 PM)
Average58 °F82%30.15 "Hg
* Reported Jul 15 10:00 AM — Jul 30 10:00 AM, Porto Alegre, Weather by CustomWeather, © 2014

Note: Actual official high and low records may vary slightly from our data, if they occured in-between our weather recording intervals... More about our weather records

Advertising

Porto Alegre weather history for previous 24 hours

 ConditionsComfort  
Time TempWeatherWind HumidityBarometerVisibility
10:00 AM
Jul 30
61 °FPartly sunny.5 mph88%30.21 "Hg6 mi
9:00 AM59 °FLight rain. More clouds than sun.7 mph94%30.18 "Hg4 mi
8:00 AM57 °FClear.3 mph94%30.18 "Hg5 mi
7:00 AM55 °FClear.1 mph94%30.21 "Hg5 mi
6:00 AM55 °FClear.2 mph100%30.21 "Hg4 mi
5:00 AM55 °FClear.2 mph94%30.18 "Hg4 mi
4:00 AM57 °FClear.1 mph88%30.21 "Hg4 mi
3:00 AM57 °FClear.2 mph94%30.21 "Hg4 mi
2:00 AM57 °FClear.No wind94%30.21 "Hg5 mi
1:00 AM57 °FClear.5 mph94%30.24 "Hg5 mi
12:00 AM59 °FClear.6 mph94%30.24 "Hg6 mi
11:00 PM
Jul 29
61 °FClear.5 mph88%30.24 "Hg6 mi
10:00 PM61 °FClear.8 mph94%30.24 "Hg10 mi
9:00 PM63 °FClear.7 mph88%30.24 "Hg10 mi
8:00 PM63 °FClear.8 mph88%30.24 "Hg10 mi
7:00 PM66 °FClear.7 mph78%30.24 "Hg10 mi
6:00 PM68 °FClear.8 mph73%30.21 "Hg10 mi
5:00 PM72 °FClear.7 mph65%30.21 "Hg10 mi
3:00 PM73 °FSunny.7 mph57%30.21 "Hg10 mi
2:00 PM73 °FSunny.8 mph57%30.21 "Hg10 mi
1:00 PM72 °FSunny.7 mph53%30.30 "Hg10 mi
12:00 PM70 °FSunny.9 mph60%30.30 "Hg10 mi
11:00 AM66 °FSunny.9 mph68%30.33 "Hg10 mi
Weather by CustomWeather, © 2014

See weather overviewHow to use our weather pages